• In Germany
  • List of Countries
  • For 7 days
  • Water Temperature
  • Satellite Maps
  • Weather Map
  • Weather Widgets
  • user-avatar
    Login

    Hourly Weather Townsville

    Today, 27 April, Thursday

    Time Temperature Precipitation Wind Pressure Humidity
    00:00 +23°C° 0 mm 2 mps 752 mmHg 92%
    01:00 +21°C° 0 mm 2 mps 752 mmHg 94%
    02:00 +21°C° 0 mm 2 mps 752 mmHg 92%
    03:00 +21°C° 0 mm 2 mps 752 mmHg 90%
    04:00 +21°C° 0 mm 2 mps 752 mmHg 88%
    05:00 +21°C° 0 mm 3 mps 753 mmHg 82%
    06:00 +21°C° 0 mm 3 mps 753 mmHg 76%
    07:00 +21°C° 0 mm 4 mps 753 mmHg 69%
    08:00 +23°C° 0 mm 4 mps 753 mmHg 61%
    09:00 +26°C° 0 mm 4 mps 753 mmHg 53%
    10:00 +29°C° 0 mm 4 mps 754 mmHg 45%
    11:00 +30°C° 0 mm 3 mps 753 mmHg 42%
    12:00 +31°C° 0 mm 2 mps 752 mmHg 39%
    13:00 +34°C° 0 mm 2 mps 752 mmHg 37%
    14:00 +34°C° 0 mm 2 mps 752 mmHg 37%
    15:00 +32°C° 0 mm 2 mps 751 mmHg 37%
    16:00 +33°C° 0 mm 3 mps 751 mmHg 37%
    17:00 +30°C° 0 mm 3 mps 751 mmHg 40%
    18:00 +27°C° 0 mm 2 mps 752 mmHg 43%
    19:00 +25°C° 0 mm 2 mps 752 mmHg 46%
    20:00 +24°C° 0 mm 3 mps 753 mmHg 41%
    21:00 +23°C° 0 mm 5 mps 753 mmHg 37%
    22:00 +22°C° 0 mm 6 mps 753 mmHg 32%
    23:00 +21°C° 0 mm 6 mps 754 mmHg 33%

    Tomorrow, 28 April, Friday

    Time Temperature Precipitation Wind Pressure Humidity
    00:00 +20°C° 0 mm 7 mps 754 mmHg 34%
    01:00 +20°C° 0 mm 7 mps 754 mmHg 35%
    02:00 +18°C° 0 mm 7 mps 754 mmHg 36%
    03:00 +17°C° 0 mm 7 mps 754 mmHg 36%
    04:00 +17°C° 0 mm 7 mps 754 mmHg 36%
    05:00 +16°C° 0 mm 7 mps 755 mmHg 39%
    06:00 +15°C° 0 mm 7 mps 755 mmHg 42%
    07:00 +15°C° 0 mm 6 mps 755 mmHg 45%
    08:00 +17°C° 0 mm 6 mps 756 mmHg 43%
    09:00 +20°C° 0 mm 6 mps 756 mmHg 40%
    10:00 +21°C° 0 mm 5 mps 756 mmHg 38%
    11:00 +23°C° 0 mm 5 mps 756 mmHg 35%
    12:00 +26°C° 0 mm 4 mps 755 mmHg 32%
    13:00 +27°C° 0 mm 4 mps 754 mmHg 28%
    14:00 +27°C° 0 mm 3 mps 754 mmHg 28%
    15:00 +27°C° 0 mm 3 mps 753 mmHg 28%
    16:00 +27°C° 0 mm 3 mps 753 mmHg 29%
    17:00 +25°C° 0 mm 3 mps 753 mmHg 32%
    18:00 +22°C° 0 mm 3 mps 754 mmHg 35%
    19:00 +19°C° 0 mm 3 mps 754 mmHg 39%
    20:00 +19°C° 0 mm 4 mps 755 mmHg 39%
    21:00 +18°C° 0 mm 4 mps 755 mmHg 39%
    22:00 +17°C° 0 mm 4 mps 755 mmHg 39%
    23:00 +17°C° 0 mm 4 mps 755 mmHg 39%

    Day after tomorrow, 29 April, Saturday

    Time Temperature Precipitation Wind Pressure Humidity
    00:00 +15°C° 0 mm 4 mps 755 mmHg 39%
    01:00 +15°C° 0 mm 4 mps 755 mmHg 39%
    02:00 +14°C° 0 mm 4 mps 755 mmHg 40%
    03:00 +14°C° 0 mm 4 mps 755 mmHg 41%
    04:00 +13°C° 0 mm 4 mps 754 mmHg 43%
    05:00 +13°C° 0 mm 4 mps 755 mmHg 45%
    06:00 +13°C° 0 mm 4 mps 755 mmHg 46%
    07:00 +12°C° 0 mm 4 mps 755 mmHg 48%
    08:00 +15°C° 0 mm 4 mps 756 mmHg 43%
    09:00 +19°C° 0 mm 4 mps 756 mmHg 39%
    10:00 +22°C° 0 mm 4 mps 756 mmHg 34%
    11:00 +25°C° 0 mm 3 mps 755 mmHg 32%
    12:00 +26°C° 0 mm 3 mps 755 mmHg 31%
    13:00 +27°C° 0 mm 3 mps 754 mmHg 30%
    14:00 +27°C° 0 mm 3 mps 754 mmHg 33%
    15:00 +27°C° 0 mm 2 mps 753 mmHg 36%
    16:00 +27°C° 0 mm 2 mps 753 mmHg 39%
    17:00 +24°C° 0 mm 2 mps 754 mmHg 52%
    18:00 +21°C° 0 mm 2 mps 754 mmHg 65%
    19:00 +18°C° 0 mm 2 mps 754 mmHg 78%
    20:00 +18°C° 0 mm 2 mps 755 mmHg 80%
    21:00 +17°C° 0 mm 2 mps 755 mmHg 83%
    22:00 +17°C° 0 mm 2 mps 756 mmHg 85%
    23:00 +17°C° 0 mm 2 mps 755 mmHg 88%

    30 April, Sunday

    Time Temperature Precipitation Wind Pressure Humidity
    00:00 +17°C° 0 mm 2 mps 755 mmHg 90%
    01:00 +17°C° 0 mm 3 mps 755 mmHg 92%
    02:00 +17°C° 0 mm 3 mps 754 mmHg 92%
    03:00 +17°C° 0 mm 3 mps 754 mmHg 93%
    04:00 +17°C° 0 mm 4 mps 754 mmHg 93%
    05:00 +17°C° 0 mm 4 mps 754 mmHg 93%
    06:00 +17°C° 0 mm 4 mps 755 mmHg 92%
    07:00 +18°C° 0 mm 4 mps 755 mmHg 91%
    08:00 +20°C° 0 mm 4 mps 755 mmHg 81%
    09:00 +23°C° 0 mm 5 mps 755 mmHg 71%
    10:00 +27°C° 0 mm 5 mps 755 mmHg 60%
    11:00 +28°C° 0.1 mm 5 mps 755 mmHg 60%
    12:00 +28°C° 0.1 mm 5 mps 754 mmHg 59%
    13:00 +29°C° 0.1 mm 5 mps 753 mmHg 59%
    14:00 +28°C° 0.2 mm 5 mps 753 mmHg 63%
    15:00 +28°C° 0.2 mm 5 mps 753 mmHg 68%
    16:00 +27°C° 0.2 mm 5 mps 753 mmHg 73%
    17:00 +25°C° 0.3 mm 5 mps 753 mmHg 80%
    18:00 +23°C° 0.3 mm 5 mps 753 mmHg 87%
    19:00 +21°C° 0.3 mm 5 mps 754 mmHg 94%
    20:00 +21°C° 0.1 mm 5 mps 754 mmHg 95%
    21:00 +21°C° 0.1 mm 5 mps 754 mmHg 95%
    22:00 +21°C° 0.1 mm 5 mps 755 mmHg 96%
    23:00 +20°C° 0.1 mm 5 mps 754 mmHg 97%

    1 May, Monday

    Time Temperature Precipitation Wind Pressure Humidity
    00:00 +20°C° 0.1 mm 4 mps 754 mmHg 97%
    01:00 +20°C° 0.1 mm 4 mps 754 mmHg 97%
    02:00 +19°C° 0.2 mm 4 mps 754 mmHg 97%
    03:00 +19°C° 0.2 mm 4 mps 753 mmHg 97%
    04:00 +19°C° 0.2 mm 4 mps 753 mmHg 97%
    05:00 +19°C° 0.1 mm 4 mps 753 mmHg 97%
    06:00 +19°C° 0.1 mm 4 mps 754 mmHg 97%
    07:00 +19°C° 0.1 mm 4 mps 754 mmHg 97%
    08:00 +22°C° 0.1 mm 4 mps 754 mmHg 87%
    09:00 +25°C° 0.1 mm 4 mps 754 mmHg 77%
    10:00 +28°C° 0.1 mm 4 mps 754 mmHg 67%
    11:00 +28°C° 0.2 mm 4 mps 754 mmHg 63%
    12:00 +29°C° 0.2 mm 4 mps 753 mmHg 59%
    13:00 +30°C° 0.2 mm 4 mps 752 mmHg 55%
    14:00 +29°C° 0.5 mm 4 mps 752 mmHg 61%
    15:00 +28°C° 0.5 mm 4 mps 752 mmHg 68%
    16:00 +27°C° 0.5 mm 4 mps 752 mmHg 74%
    17:00 +26°C° 0.5 mm 4 mps 752 mmHg 80%
    18:00 +25°C° 0.5 mm 3 mps 753 mmHg 86%
    19:00 +22°C° 0.5 mm 3 mps 753 mmHg 92%
    20:00 +22°C° 0.3 mm 3 mps 754 mmHg 92%
    21:00 +22°C° 0.3 mm 3 mps 754 mmHg 93%
    22:00 +21°C° 0.3 mm 3 mps 754 mmHg 94%
    23:00 +21°C° 0.2 mm 3 mps 754 mmHg 95%

    2 May, Tuesday

    Time Temperature Precipitation Wind Pressure Humidity
    00:00 +21°C° 0.2 mm 3 mps 753 mmHg 95%
    01:00 +21°C° 0.2 mm 3 mps 753 mmHg 96%
    02:00 +20°C° 0.2 mm 2 mps 753 mmHg 96%
    03:00 +20°C° 0.2 mm 2 mps 753 mmHg 97%
    04:00 +20°C° 0.2 mm 2 mps 753 mmHg 97%
    05:00 +20°C° 0 mm 2 mps 753 mmHg 97%
    06:00 +20°C° 0 mm 2 mps 753 mmHg 97%
    07:00 +21°C° 0 mm 1 mps 754 mmHg 97%
    08:00 +24°C° 0 mm 2 mps 754 mmHg 88%
    09:00 +26°C° 0 mm 2 mps 754 mmHg 80%
    10:00 +28°C° 0 mm 2 mps 754 mmHg 71%
    11:00 +29°C° 0 mm 2 mps 753 mmHg 66%
    12:00 +29°C° 0 mm 2 mps 753 mmHg 62%
    13:00 +30°C° 0 mm 2 mps 752 mmHg 57%
    14:00 +30°C° 0.1 mm 3 mps 752 mmHg 61%
    15:00 +29°C° 0.1 mm 3 mps 752 mmHg 65%
    16:00 +28°C° 0.1 mm 3 mps 751 mmHg 69%
    17:00 +27°C° 0.3 mm 2 mps 752 mmHg 77%
    18:00 +25°C° 0.3 mm 2 mps 752 mmHg 85%
    19:00 +23°C° 0.3 mm 2 mps 753 mmHg 92%
    20:00 +23°C° 0.2 mm 2 mps 753 mmHg 93%
    21:00 +23°C° 0.2 mm 2 mps 753 mmHg 94%
    22:00 +23°C° 0.2 mm 2 mps 754 mmHg 95%
    23:00 +23°C° 0.3 mm 2 mps 753 mmHg 95%
    Show more